Weather in Kletskaya

Russia / Volgograd Oblast     49°18′52″N   43°03′39″E
temp.,
°C
wind,
m/s
gust,
m/s
humid.,
%
clouds,
%
prec.,
mm/h
press.,
hPa
HPBL,
m
26 june, sun
sun2600:00+18ne34785 0.0 101371
03:00+18ne3669100 0.0 1013124
06:00+19ne41170100 0.0 1014417
09:00+25ene794998 0.0 10141401
12:00+28ne8840100 0.0 10142376
15:00+28ne99315 0.0 10142346
18:00+27ene79395 0.0 10142115
21:00+23ne612515 0.0 1015565
27 june, mon
mon2700:00+20ene715614 0.0 1016567
03:00+17ene614610 0.0 1018476
06:00+16ene612650 0.0 1019448
09:00+22ene78410 0.0 1019971
12:00+26ene78280 0.0 10191413
15:00+27ene77250 0.0 10181634
18:00+25ene66290 0.0 10171430
21:00+19ne4846100 0.0 1018123
28 june, tue
tue2800:00+17ene3354100 0.0 101830
03:00+16nne335899 0.0 101727
06:00+18nne2459100 0.0 1017134
09:00+25nne344795 0.0 1016790
12:00+29nne45407 0.0 10141799
15:00+30nne6639100 0.1 10132338
18:00+28nne79428 0.0 10141184
21:00+23ene711635 0.0 1016476
29 june, wed
wed2900:00+18ene510750 0.0 1018339
03:00+15ene410700 0.0 1019268
06:00+16e59600 0.0 1020355
09:00+20e66420 0.0 10201029
12:00+23ene65335 0.0 10201889
15:00+24ne55305 0.0 10192127
18:00+23ne65325 0.0 10192085
21:00+17ene35490 0.0 102066
30 june, thu
thu3000:00+15e335411 0.0 102031
03:00+14s1153100 0.0 101910
06:00+17nw12500 0.0 1020127
09:00+21nne22400 0.0 10201536
12:00+24nne55303 0.0 10182227
15:00+25n55280 0.0 10172168
18:00+24n66320 0.0 10171976
21:00+18n33520 0.0 101824